Regional Weather Roundup
Issued by NWS

Home | Current Version | Previous Version | Graphics & Text | Print | Product List | Glossary On
Versions: 1 2 3 4 5 6 7 8 9 10 11 12 13 14 15 16 17 18 19 20 21 22 23 24 25 26 27 28 29 30 31 32 33 34 35 36 37 38 39 40 41 42 43 44 45 46 47 48 49 50
740
ASUS43 KBIS 202102
RWRND

NORTH DAKOTA REGIONAL WEATHER ROUNDUP
NATIONAL WEATHER SERVICE BISMARCK ND
400 PM CDT WED SEP 20 2017

NOTE: "FAIR" INDICATES FEW OR NO CLOUDS BELOW 12,000 FEET WITH NO
SIGNIFICANT WEATHER AND/OR OBSTRUCTIONS TO VISIBILITY.


NDZ001>003-009>011-017-202200-
NORTHWEST NORTH DAKOTA

CITY           SKY/WX    TMP DP  RH WIND       PRES   REMARKS
WILLISTON      SUNNY     67  33  28 SW15G32   29.57F
MINOT          MOSUNNY   69  33  26 SW17G33   29.62R
MINOT AFB      MOSUNNY   67  32  27 SW23G35   29.60R
$$

NDZ018>021-031>035-040>046-202200-
SOUTHWEST NORTH DAKOTA

CITY           SKY/WX    TMP DP  RH WIND       PRES   REMARKS
BISMARCK       MOSUNNY   71  35  26 SW15G23   29.70S
DICKINSON      MOSUNNY   69  29  22 SW20      29.66R
GARRISON         N/A     68  35  29 SW21      29.64S
HETTINGER ARPT SUNNY     69  28  21 SW21G28   29.70F
$$

NDZ004>008-012>016-024-026-027-054-202200-
NORTHEAST NORTH DAKOTA

CITY           SKY/WX    TMP DP  RH WIND       PRES   REMARKS
GRAND FORKS    MOSUNNY   71  43  36 SW17G24   29.69F
GRND FRKS AFB  MOSUNNY   72  38  28 SW15G24   29.70F
DEVILS LAKE    SUNNY     67  40  37 SW20G28   29.66F
$$

NDZ022-023-025-028>030-036>039-047>053-202200-
SOUTHEAST NORTH DAKOTA

CITY           SKY/WX    TMP DP  RH WIND       PRES   REMARKS
FARGO          SUNNY     72  39  30 SW14      29.76F
JAMESTOWN      MOSUNNY   69  36  29 SW13G23   29.72F
$$





USA.gov is the U.S. government's official web portal to all federal, state and local government web resources and services.